Regional Weather Roundup
Issued by NWS

Home | Current Version | Previous Version | Graphics & Text | Print | Product List | Glossary On
Versions: 1 2 3 4 5 6 7 8 9 10 11 12 13 14 15 16 17 18 19 20 21 22 23 24 25 26 27 28 29 30 31 32 33 34 35 36 37 38 39 40 41 42 43 44 45 46 47 48 49 50
000
ASUS43 KLOT 262008
RWRIL

ILLINOIS REGIONAL WEATHER ROUNDUP
NATIONAL WEATHER SERVICE CHICAGO/ROMEOVILLE IL
200 PM CST SUN FEB 26 2017

NOTE: "FAIR" INDICATES FEW OR NO CLOUDS BELOW 12,000 FEET WITH NO
SIGNIFICANT WEATHER AND/OR OBSTRUCTIONS TO VISIBILITY.

* THESE STATIONS ARE NOT UNDER NWS QUALITY CONTROL. THEY ALSO MAY NOT
  REPORT WEATHER SUCH AS PRECIPITATION OR FOG.

ILZ001-002-007-009-015-016-024-262100-
NORTHWEST ILLINOIS

CITY           SKY/WX    TMP DP  RH WIND       PRES   REMARKS
MOLINE         SUNNY     52  21  29 W20       29.92F
STERLING*      SUNNY     48  21  34 W20G28    29.93S
$$

ILZ003-004-008-010-011-017-018-262100-
NORTH CENTRAL ILLINOIS

CITY           SKY/WX    TMP DP  RH WIND       PRES   REMARKS
ROCKFORD       MOSUNNY   47  22  37 W18G25    29.92F
FREEPORT*      SUNNY     44  24  46 SW16G22   29.92S
ROCHELLE*      SUNNY     45  27  49 SW24      29.93F
DE KALB*       SUNNY     45  23  40 SW23G29   29.93F
PERU*          SUNNY     47  20  34 SW23      29.95F
$$

ILZ005-006-012>014-019>023-262100-
NORTHEAST ILLINOIS

CITY           SKY/WX    TMP DP  RH WIND       PRES   REMARKS
CHICAGO-OHARE  MOSUNNY   47  20  34 SW24G35   29.92F
CHICAGO-MIDWAY MOSUNNY   48  19  31 SW22G35   29.94F
AURORA         MOSUNNY   48  23  37 SW21G30   29.94F
LANSING*       SUNNY     47  25  42 SW26G37   29.96F
JOLIET*        MOSUNNY   48  21  34 SW18G25   29.96F
WAUKEGAN       SUNNY     46  22  38 W10G25    29.89S
DUPAGE AIRPORT SUNNY     47  20  34 SW23G35   29.93S
KANKAKEE*      CLOUDY    49  19  30 SW22G31   29.99F
WHEELING       SUNNY     46  18  32 W18G29    29.92F
MORRIS*        SUNNY     48  21  34 W22G28    29.95F
ROMEOVILLE*    MOSUNNY   47  27  45 SW17G29   29.95F
NORTHERLY ISL    N/A     45  16  31 S14         N/A
$$

LMZ740>746-262100-
SOUTHERN LAKE MICHIGAN

STATION/POSITION SKY/WX   TEMP    WIND        PRES    VSBY  WAVE
                          AIR SEA DIR/SP/G                  HT/PER
                          (F)     (DEG/KT/KT) (MB)    (MI)  (FT/S)
HARRISON CRIB              45     220/ 28/ 34   N/A
BURNHAM HARBOR             46     230/  8/ 23   N/A
CALUMET HARBOR             46     210/ 18/ 29 1013.5F
BURNS HARBOR               44     210/ 28/ 34 1014.6F
MICHIGAN CITY              43     200/ 28/ 32   N/A
$$

ILZ025>027-034>036-040-047-049-050-058-095>099-262100-
WEST-CENTRAL ILLINOIS

CITY           SKY/WX    TMP DP  RH WIND       PRES   REMARKS
QUINCY         CLOUDY    46  26  45 S17G26    30.01F
GALESBURG*     MOSUNNY   50  25  37 SW17G28   29.95F
MACOMB*        SUNNY     50  24  35 SW16G25   29.99F
JACKSONVILLE*  PTSUNNY   44  18  34 S17       30.05S
PITTSFIELD*    CLOUDY    46  25  44 SW14      30.05S
$$

ILZ028>032-037-038-041>044-048-051>054-059>061-262100-
CENTRAL ILLINOIS

CITY           SKY/WX    TMP DP  RH WIND       PRES   REMARKS
PONTIAC        SUNNY     50  20  30 SW22G32   29.99F
BLOOMINGTON    SUNNY     48  19  31 SW20G32   30.00F
DECATUR        CLOUDY    48  16  27 SW24      30.05F
PEORIA         SUNNY     50  20  30 SW20      29.98F
LACON*         SUNNY     49  21  34 SW14G21   29.96F
LINCOLN*       SUNNY     49  20  32 S10G21    30.02F
SPRINGFIELD    MOSUNNY   48  16  27 SW18G30   30.05F
TAYLORVILLE    PTSUNNY   44  18  36 S20G26    30.07S
$$

ILZ033-039-045-046-055>057-062-063-262100-
EAST-CENTRAL ILLINOIS

CITY           SKY/WX    TMP DP  RH WIND       PRES   REMARKS
CHAMPAIGN      SUNNY     47  15  27 SW24G33   30.05F
RANTOUL*       SUNNY     51  18  27 SW29      30.03F
MATTOON        CLOUDY    45  19  35 S14G25    30.07F
PARIS*         PTSUNNY   46  20  36 S21       30.10S
$$

ILZ079-100>102-262100-
SOUTHWEST ILLINOIS

CITY           SKY/WX    TMP DP  RH WIND       PRES   REMARKS
ALTON          CLOUDY    45  16  31 S14       30.09F
BELLEVILLE     MOSUNNY   47  15  27 SE8       30.09F
CAHOKIA*       CLOUDY    48  13  24 SW7G17    30.09F
SPARTA*        CLOUDY    46  19  34 S10G18    30.12F
$$

ILZ064>066-069>071-074>076-080>082-084>086-088>090-092>094-262100-
SOUTH-CENTRAL ILLINOIS

CITY           SKY/WX    TMP DP  RH WIND       PRES   REMARKS
CARBONDALE     CLOUDY    49  17  28 S12       30.12F
CAIRO*         PTSUNNY   50  21  32 S7        30.13F
EFFINGHAM*     CLOUDY    46  21  37 S13       30.12F
MARION         CLOUDY    52  16  24 S12       30.14F
MT. VERNON     CLOUDY    49  18  29 S15       30.12F
CENTRALIA*     CLOUDY    49  22  34 SW14      30.10F
SALEM*         PTSUNNY   48  17  29 SW13      30.11F
METROPOLIS*    CLOUDY    51  20  29 CALM      30.14F
$$

ILZ067-068-072-073-078-083-087-091-262100-
SOUTHEAST ILLINOIS

CITY           SKY/WX    TMP DP  RH WIND       PRES   REMARKS
LAWRENCEVILLE  MOSUNNY   49  16  26 SW16      30.13F
FLORA*         SUNNY     48  21  34 S9        30.12F
FAIRFIELD*     CLOUDY    49  20  32 S7        30.12F
HARRISBURG*    MOSUNNY   49  20  31 SW10      30.14F
ROBINSON*      CLOUDY    46  16  30 SW15G23   30.13F
CARMI*         SUNNY     50  19  28 S12G18    30.13F
$$

ABBREVIATIONS USED IN REMARKS
   TC - TEMPERATURE IN CELSIUS
  WCI - WIND CHILL INDEX
   HX - HEAT INDEX
  VSB - VISIBILITY
$$




USA.gov is the U.S. government's official web portal to all federal, state and local government web resources and services.